Regional Weather Roundup
Issued by NWS Columbia, SC

Home | Current Version | Previous Version | Text Only | Print | Product List | Glossary On
Versions: 1 2 3 4 5 6 7 8 9 10 11 12 13 14 15 16 17 18 19 20 21 22 23 24 25 26 27 28 29 30 31 32 33 34 35 36 37 38 39 40 41 42 43 44 45 46 47 48 49 50
501
ASUS42 KCAE 232110
RWRCAE
REGIONAL WEATHER ROUNDUP
NATIONAL WEATHER SERVICE COLUMBIA SC
500 PM EDT THU MAR 23 2017

NOTE: "FAIR" INDICATES FEW OR NO CLOUDS BELOW 12,000 FEET WITH NO
SIGNIFICANT WEATHER AND/OR OBSTRUCTIONS TO VISIBILITY.

NOT ALL STATIONS ARE QUALITY CONTROLLED BY THE NATIONAL
WEATHER SERVICE. USE DATA WITH CAUTION...ESPECIALLY
DEWPOINT OBSERVATIONS.

SCZ001>056-GAZ040-063>065-077-232200-
...UPSTATE SOUTH CAROLINA...

CITY           SKY/WX    TMP DP  RH WIND       PRES   REMARKS
ANDERSON       SUNNY     61  29  29 VRB3      30.43F
LIBERTY        CLEAR     60  29  30 SE7       30.43S
SPARTANBURG    SUNNY     61  23  23 SE6       30.45F
CLEMSON        SUNNY     61  28  28 E3        30.44F
GREENVILLE     SUNNY     61  26  26 CALM      30.45F
GREENWOOD      SUNNY     61  27  27 VRB6      30.45F
GREER          SUNNY     59  25  27 SE6       30.44F
ROCK HILL      SUNNY     59  22  24 SE7       30.47F
CHESTER        CLEAR     61  21  21 SE9       30.48S
LAURENS        CLEAR     61  28  29 NE3       30.45S


...CENTRAL SOUTH CAROLINA...

CITY           SKY/WX    TMP DP  RH WIND       PRES   REMARKS
COLUMBIA APT   MOSUNNY   64  26  23 E5        30.46F
COLUMBIA OWENS SUNNY     63  24  22 VRB7      30.47F
MCENTIRE ANGB  MOSUNNY   62  22  21 E7        30.46F
ORANGEBURG     SUNNY     62  25  24 SE12      30.46F
SUMTER SHAW    SUNNY     62  23  22 E8        30.46F
NEWBERRY       CLEAR     61  28  29 NE3       30.49S
AIKEN          FAIR      63  30  29 E7        30.47S
BARNWELL       FAIR      66  34  30 SE12      30.44S
MANNING        FAIR      63  28  27 S6        30.47F
CAMDEN         FAIR      61  23  23 E6G12     30.49S
LANCASTER      CLEAR     59  19  21 E7        30.48F
WINNSBORO      CLEAR     61  27  27 E7        30.47S


...EASTERN AND COASTAL SOUTH CAROLINA...

CITY           SKY/WX    TMP DP  RH WIND       PRES   REMARKS
MYRTLE BEACH   SUNNY     54  34  47 E16       30.53S
N MYRTLE BCH   SUNNY     54  30  40 SE10G21   30.52S
CONWAY         FAIR      55  32  41 E6        30.51S
MARION         FAIR      59  27  29 NE3       30.51S
HARTSVILLE     FAIR      59  25  27 E3        30.49S
FLORENCE       SUNNY     60  24  25 NE6       30.50F
DARLINGTON     SUNNY     60  26  27 E6        30.50F
CHARLESTON APT SUNNY     64  33  31 E9        30.46F
MOUNT PLEASANT FAIR      59  45  58 E8G22     30.48S
WALTERBORO     CLEAR     64  34  32 E10       30.45S
BEAUFORT       SUNNY     65  42  43 E13G21    30.45S


...EASTERN GEORGIA...

CITY           SKY/WX    TMP DP  RH WIND       PRES   REMARKS
AUGUSTA BUSH F SUNNY     68  34  28 SE8       30.41F
AUGUSTA DANIEL SUNNY     66  30  26 SE8       30.43F
THOMSON        PTSUNNY   65  33  30 S9        30.47S
WASHINGTON     FAIR      64  37  36 SE9       30.42F
CLAXTON        CLOUDY    67  48  49 NE10      30.41F
SYLVANIA       CLEAR    N/A N/A N/A E7        30.42F
STATESBORO     MOSUNNY   70  46  41 E9        30.41F
SAVANNAH       MOSUNNY   66  39  37 E14G23    30.44R


...SOUTHERN NORTH CAROLINA...

CITY           SKY/WX    TMP DP  RH WIND       PRES   REMARKS
CHARLOTTE      MOSUNNY   58  18  21 VRB5      30.48F
MONROE         SUNNY     57  20  23 CALM      30.47F
WADESBORO      CLEAR     58  19  21 CALM      30.49F
ROCKINGHAM     CLEAR     58  25  28 S6        30.50S
RUTHERFORDTON  SUNNY     58  25  28 S10G16    30.46S
ASHEVILLE      SUNNY     57  22  25 SE8       30.41F

$$




USA.gov is the U.S. government's official web portal to all federal, state and local government web resources and services.